contact:dominique.lefevre@mio.osupytheas.fr, maurice.libes@osupytheas.fr, didier.mallarino@osupytheas.fr
Project:EMSO http://www.emso-fr.org/EMSO-France
Depth: 2436.0 m
Title:EMSO Ligure Ouest : Data MII capteur CSTAR
DateTime,Latitude,Longitude,Instrument_Serial,Reference_Counts,Signal_Counts,Corrected_Signal_raw_counts,Calculated_Beam_c_inverse_meters,Internal_thermistor_counts
DateTime,Latitude,Longitude,Instrument_Serial,Reference_Counts,Signal_Counts,Corrected_Signal_raw_counts,Calculated_Beam_c_inverse_meters,Internal_thermistor_counts
2020-03-18T00:01:21,42.805,6.029,CST-1368DR,6606,9264,15216,0.104,551
2020-03-18T00:04:23,42.805,6.029,CST-1368DR,6606,9264,15217,0.104,551
2020-03-18T00:07:25,42.805,6.029,CST-1368DR,6606,9263,15216,0.104,551
2020-03-18T00:10:26,42.805,6.029,CST-1368DR,6606,9264,15217,0.104,551
2020-03-18T00:13:28,42.805,6.029,CST-1368DR,6606,9264,15217,0.104,551
2020-03-18T00:16:30,42.805,6.029,CST-1368DR,6606,9264,15217,0.104,551
2020-03-18T00:19:31,42.805,6.029,CST-1368DR,6606,9264,15217,0.104,551
2020-03-18T00:22:33,42.805,6.029,CST-1368DR,6606,9263,15214,0.104,551
2020-03-18T00:25:35,42.805,6.029,CST-1368DR,6606,9263,15216,0.104,551
2020-03-18T00:28:37,42.805,6.029,CST-1368DR,6606,9263,15214,0.104,550
2020-03-18T00:31:38,42.805,6.029,CST-1368DR,6606,9262,15214,0.104,551
2020-03-18T00:34:40,42.805,6.029,CST-1368DR,6606,9264,15217,0.104,551
2020-03-18T00:37:42,42.805,6.029,CST-1368DR,6606,9264,15217,0.104,551
2020-03-18T00:40:43,42.805,6.029,CST-1368DR,6606,9264,15217,0.104,551
2020-03-18T00:43:45,42.805,6.029,CST-1368DR,6606,9262,15213,0.105,551
2020-03-18T00:46:47,42.805,6.029,CST-1368DR,6606,9262,15214,0.104,550
2020-03-18T00:49:49,42.805,6.029,CST-1368DR,6606,9261,15212,0.105,551
2020-03-18T00:52:50,42.805,6.029,CST-1368DR,6606,9262,15213,0.105,551
2020-03-18T00:55:52,42.805,6.029,CST-1368DR,6606,9264,15216,0.104,551
2020-03-18T00:58:54,42.805,6.029,CST-1368DR,6606,9263,15215,0.104,551
2020-03-18T01:01:55,42.805,6.029,CST-1368DR,6606,9264,15217,0.104,551
2020-03-18T01:04:57,42.805,6.029,CST-1368DR,6606,9263,15214,0.104,551
2020-03-18T01:07:59,42.805,6.029,CST-1368DR,6606,9260,15209,0.106,551
2020-03-18T01:11:00,42.805,6.029,CST-1368DR,6606,9262,15214,0.104,551
2020-03-18T01:14:02,42.805,6.029,CST-1368DR,6606,9263,15215,0.104,551
2020-03-18T01:17:04,42.805,6.029,CST-1368DR,6606,9263,15214,0.104,551
2020-03-18T01:20:05,42.805,6.029,CST-1368DR,6606,9263,15215,0.104,551
2020-03-18T01:23:07,42.805,6.029,CST-1368DR,6606,9263,15215,0.104,551
2020-03-18T01:26:09,42.805,6.029,CST-1368DR,6606,9263,15216,0.104,551
2020-03-18T01:29:11,42.805,6.029,CST-1368DR,6606,9263,15215,0.104,551
2020-03-18T01:32:12,42.805,6.029,CST-1368DR,6606,9260,15210,0.105,551
2020-03-18T01:35:14,42.805,6.029,CST-1368DR,6606,9260,15210,0.105,551
2020-03-18T01:38:16,42.805,6.029,CST-1368DR,6606,9263,15215,0.104,551
2020-03-18T01:41:18,42.805,6.029,CST-1368DR,6606,9263,15215,0.104,551
2020-03-18T01:44:19,42.805,6.029,CST-1368DR,6606,9263,15215,0.104,551
2020-03-18T01:47:21,42.805,6.029,CST-1368DR,6606,9263,15215,0.104,551
2020-03-18T01:50:23,42.805,6.029,CST-1368DR,6606,9263,15216,0.104,551
2020-03-18T01:53:24,42.805,6.029,CST-1368DR,6606,9262,15214,0.104,551
2020-03-18T01:56:26,42.805,6.029,CST-1368DR,6606,9262,15214,0.104,551
2020-03-18T01:59:28,42.805,6.029,CST-1368DR,6606,9261,15211,0.105,551
2020-03-18T02:02:29,42.805,6.029,CST-1368DR,6606,9262,15214,0.104,551
2020-03-18T02:05:31,42.805,6.029,CST-1368DR,6606,9263,15215,0.104,551
2020-03-18T02:08:33,42.805,6.029,CST-1368DR,6606,9263,15215,0.104,551
2020-03-18T02:11:34,42.805,6.029,CST-1368DR,6606,9264,15217,0.104,551
2020-03-18T02:14:36,42.805,6.029,CST-1368DR,6606,9263,15216,0.104,551
2020-03-18T02:17:38,42.805,6.029,CST-1368DR,6606,9263,15216,0.104,551
2020-03-18T02:20:40,42.805,6.029,CST-1368DR,6606,9263,15215,0.104,551
2020-03-18T02:23:41,42.805,6.029,CST-1368DR,6606,9263,15214,0.104,551
2020-03-18T02:26:43,42.805,6.029,CST-1368DR,6606,9263,15215,0.104,551
2020-03-18T02:29:45,42.805,6.029,CST-1368DR,6606,9263,15214,0.104,551
2020-03-18T02:32:46,42.805,6.029,CST-1368DR,6606,9263,15215,0.104,551
2020-03-18T02:35:48,42.805,6.029,CST-1368DR,6606,9263,15216,0.104,551
2020-03-18T02:38:50,42.805,6.029,CST-1368DR,6606,9262,15214,0.104,551
2020-03-18T02:41:51,42.805,6.029,CST-1368DR,6606,9264,15217,0.104,551
2020-03-18T02:44:53,42.805,6.029,CST-1368DR,6606,9264,15216,0.104,551
2020-03-18T02:47:55,42.805,6.029,CST-1368DR,6606,9263,15215,0.104,551
2020-03-18T02:50:57,42.805,6.029,CST-1368DR,6605,9257,15208,0.106,551
2020-03-18T02:53:58,42.805,6.029,CST-1368DR,6606,9263,15215,0.104,551
2020-03-18T02:57:00,42.805,6.029,CST-1368DR,6605,9263,15217,0.104,551
2020-03-18T03:00:02,42.805,6.029,CST-1368DR,6606,9262,15213,0.105,551
2020-03-18T03:03:03,42.805,6.029,CST-1368DR,6605,9263,15217,0.104,551
2020-03-18T03:06:05,42.805,6.029,CST-1368DR,6605,9263,15217,0.104,551
2020-03-18T03:09:07,42.805,6.029,CST-1368DR,6605,9263,15217,0.104,551
2020-03-18T03:12:08,42.805,6.029,CST-1368DR,6606,9262,15214,0.104,551
2020-03-18T03:15:10,42.805,6.029,CST-1368DR,6605,9262,15215,0.104,551
2020-03-18T03:18:12,42.805,6.029,CST-1368DR,6605,9261,15214,0.104,551
2020-03-18T03:21:14,42.805,6.029,CST-1368DR,6606,9262,15214,0.104,551
2020-03-18T03:24:15,42.805,6.029,CST-1368DR,6605,9263,15217,0.104,551
2020-03-18T03:27:17,42.805,6.029,CST-1368DR,6605,9262,15216,0.104,551
2020-03-18T03:30:19,42.805,6.029,CST-1368DR,6605,9262,15215,0.104,551
2020-03-18T03:33:20,42.805,6.029,CST-1368DR,6605,9261,15213,0.105,551
2020-03-18T03:36:22,42.805,6.029,CST-1368DR,6605,9261,15214,0.104,551
2020-03-18T03:39:24,42.805,6.029,CST-1368DR,6605,9262,15215,0.104,551
2020-03-18T03:42:25,42.805,6.029,CST-1368DR,6605,9262,15216,0.104,551
2020-03-18T03:45:27,42.805,6.029,CST-1368DR,6605,9261,15214,0.104,551
2020-03-18T03:48:29,42.805,6.029,CST-1368DR,6605,9262,15216,0.104,551
2020-03-18T03:51:31,42.805,6.029,CST-1368DR,6605,9262,15215,0.104,551
2020-03-18T03:54:32,42.805,6.029,CST-1368DR,6605,9261,15214,0.104,551
2020-03-18T03:57:34,42.805,6.029,CST-1368DR,6605,9262,15216,0.104,551
2020-03-18T04:00:36,42.805,6.029,CST-1368DR,6605,9261,15214,0.104,551
2020-03-18T04:03:37,42.805,6.029,CST-1368DR,6605,9263,15217,0.104,551
2020-03-18T04:06:39,42.805,6.029,CST-1368DR,6605,9262,15216,0.104,551
2020-03-18T04:09:41,42.805,6.029,CST-1368DR,6605,9263,15217,0.104,551
2020-03-18T04:12:43,42.805,6.029,CST-1368DR,6605,9263,15217,0.104,551
2020-03-18T04:15:44,42.805,6.029,CST-1368DR,6605,9262,15215,0.104,551
2020-03-18T04:18:46,42.805,6.029,CST-1368DR,6605,9263,15217,0.104,551
2020-03-18T04:21:48,42.805,6.029,CST-1368DR,6605,9262,15216,0.104,551
2020-03-18T04:24:49,42.805,6.029,CST-1368DR,6605,9262,15216,0.104,551
2020-03-18T04:27:51,42.805,6.029,CST-1368DR,6605,9263,15217,0.104,550
2020-03-18T04:30:53,42.805,6.029,CST-1368DR,6605,9263,15217,0.104,551
2020-03-18T04:33:54,42.805,6.029,CST-1368DR,6605,9263,15217,0.104,551
2020-03-18T04:36:56,42.805,6.029,CST-1368DR,6605,9263,15217,0.104,551
2020-03-18T04:39:58,42.805,6.029,CST-1368DR,6605,9262,15215,0.104,551
2020-03-18T04:43:00,42.805,6.029,CST-1368DR,6605,9263,15217,0.104,551
2020-03-18T04:46:01,42.805,6.029,CST-1368DR,6605,9262,15216,0.104,551
2020-03-18T04:49:03,42.805,6.029,CST-1368DR,6605,9263,15217,0.104,551
2020-03-18T04:52:05,42.805,6.029,CST-1368DR,6605,9262,15215,0.104,551
2020-03-18T04:55:06,42.805,6.029,CST-1368DR,6605,9262,15216,0.104,550
2020-03-18T04:58:08,42.805,6.029,CST-1368DR,6605,9262,15216,0.104,551
2020-03-18T05:01:10,42.805,6.029,CST-1368DR,6605,9262,15216,0.104,551
2020-03-18T05:04:11,42.805,6.029,CST-1368DR,6605,9262,15216,0.104,551
2020-03-18T05:07:13,42.805,6.029,CST-1368DR,6605,9262,15215,0.104,551
2020-03-18T05:10:15,42.805,6.029,CST-1368DR,6605,9261,15214,0.104,550
2020-03-18T05:13:17,42.805,6.029,CST-1368DR,6605,9262,15215,0.104,551
2020-03-18T05:16:18,42.805,6.029,CST-1368DR,6605,9262,15215,0.104,551
2020-03-18T05:19:20,42.805,6.029,CST-1368DR,6605,9262,15215,0.104,551
2020-03-18T05:22:22,42.805,6.029,CST-1368DR,6605,9261,15214,0.104,551
2020-03-18T05:25:23,42.805,6.029,CST-1368DR,6605,9262,15215,0.104,551
2020-03-18T05:28:25,42.805,6.029,CST-1368DR,6605,9262,15215,0.104,551
2020-03-18T05:31:27,42.805,6.029,CST-1368DR,6605,9261,15214,0.104,551
2020-03-18T05:34:29,42.805,6.029,CST-1368DR,6605,9261,15214,0.104,551
2020-03-18T05:37:30,42.805,6.029,CST-1368DR,6605,9259,15211,0.105,551
2020-03-18T05:40:32,42.805,6.029,CST-1368DR,6605,9262,15215,0.104,551
2020-03-18T05:43:34,42.805,6.029,CST-1368DR,6605,9261,15214,0.104,551
2020-03-18T05:46:35,42.805,6.029,CST-1368DR,6605,9261,15214,0.104,551
2020-03-18T05:49:37,42.805,6.029,CST-1368DR,6605,9261,15214,0.104,551
2020-03-18T05:52:39,42.805,6.029,CST-1368DR,6605,9261,15214,0.104,551
2020-03-18T05:55:40,42.805,6.029,CST-1368DR,6605,9262,15216,0.104,551
2020-03-18T05:58:42,42.805,6.029,CST-1368DR,6605,9262,15215,0.104,551
2020-03-18T06:01:44,42.805,6.029,CST-1368DR,6605,9256,15206,0.106,551
2020-03-18T06:04:46,42.805,6.029,CST-1368DR,6605,9260,15212,0.105,551
2020-03-18T06:07:47,42.805,6.029,CST-1368DR,6605,9261,15214,0.104,551
2020-03-18T06:10:49,42.805,6.029,CST-1368DR,6605,9259,15210,0.105,551
2020-03-18T06:13:51,42.805,6.029,CST-1368DR,6605,9262,15215,0.104,551
2020-03-18T06:16:53,42.805,6.029,CST-1368DR,6605,9258,15210,0.105,551
2020-03-18T06:19:54,42.805,6.029,CST-1368DR,6605,9262,15215,0.104,551
2020-03-18T06:22:56,42.805,6.029,CST-1368DR,6605,9262,15215,0.104,551
2020-03-18T06:25:58,42.805,6.029,CST-1368DR,6605,9261,15214,0.104,551
2020-03-18T06:28:59,42.805,6.029,CST-1368DR,6605,9262,15216,0.104,551
2020-03-18T06:32:01,42.805,6.029,CST-1368DR,6605,9262,15216,0.104,551
2020-03-18T06:35:03,42.805,6.029,CST-1368DR,6605,9261,15214,0.104,551
2020-03-18T06:38:04,42.805,6.029,CST-1368DR,6605,9262,15215,0.104,551
2020-03-18T06:41:06,42.805,6.029,CST-1368DR,6605,9261,15214,0.104,551
2020-03-18T06:44:08,42.805,6.029,CST-1368DR,6605,9262,15215,0.104,551
2020-03-18T06:47:10,42.805,6.029,CST-1368DR,6605,9262,15215,0.104,551
2020-03-18T06:50:11,42.805,6.029,CST-1368DR,6605,9262,15216,0.104,550
2020-03-18T06:53:13,42.805,6.029,CST-1368DR,6605,9261,15213,0.105,551
2020-03-18T06:56:15,42.805,6.029,CST-1368DR,6605,9262,15215,0.104,550
2020-03-18T06:59:17,42.805,6.029,CST-1368DR,6605,9261,15214,0.104,551
2020-03-18T07:02:18,42.805,6.029,CST-1368DR,6605,9262,15216,0.104,551
2020-03-18T07:05:20,42.805,6.029,CST-1368DR,6605,9262,15216,0.104,551
2020-03-18T07:08:22,42.805,6.029,CST-1368DR,6605,9262,15216,0.104,551
2020-03-18T07:11:23,42.805,6.029,CST-1368DR,6605,9261,15214,0.104,551
2020-03-18T07:14:25,42.805,6.029,CST-1368DR,6605,9261,15214,0.104,551
2020-03-18T07:17:27,42.805,6.029,CST-1368DR,6605,9258,15210,0.105,551
2020-03-18T07:20:29,42.805,6.029,CST-1368DR,6605,9261,15214,0.104,551
2020-03-18T07:23:30,42.805,6.029,CST-1368DR,6604,9261,15217,0.104,551
2020-03-18T07:26:32,42.805,6.029,CST-1368DR,6605,9262,15215,0.104,551
2020-03-18T07:29:34,42.805,6.029,CST-1368DR,6605,9259,15211,0.105,551
2020-03-18T07:32:35,42.805,6.029,CST-1368DR,6604,9260,15214,0.104,551
2020-03-18T07:35:37,42.805,6.029,CST-1368DR,6605,9260,15212,0.105,551
2020-03-18T07:38:39,42.805,6.029,CST-1368DR,6605,9262,15215,0.104,551
2020-03-18T07:41:40,42.805,6.029,CST-1368DR,6605,9261,15214,0.104,550
2020-03-18T07:44:42,42.805,6.029,CST-1368DR,6604,9261,15216,0.104,551
2020-03-18T07:47:44,42.805,6.029,CST-1368DR,6605,9261,15213,0.105,551
2020-03-18T07:50:45,42.805,6.029,CST-1368DR,6605,9261,15213,0.105,551
2020-03-18T07:53:47,42.805,6.029,CST-1368DR,6604,9260,15215,0.104,551
2020-03-18T07:56:49,42.805,6.029,CST-1368DR,6605,9261,15214,0.104,551
2020-03-18T07:59:51,42.805,6.029,CST-1368DR,6605,9260,15212,0.105,551
2020-03-18T08:02:52,42.805,6.029,CST-1368DR,6604,9261,15216,0.104,551
2020-03-18T08:05:54,42.805,6.029,CST-1368DR,6605,9261,15214,0.104,551
2020-03-18T08:08:56,42.805,6.029,CST-1368DR,6604,9261,15217,0.104,550
2020-03-18T08:11:58,42.805,6.029,CST-1368DR,6604,9261,15216,0.104,551
2020-03-18T08:14:59,42.805,6.029,CST-1368DR,6604,9259,15213,0.105,550
2020-03-18T08:18:01,42.805,6.029,CST-1368DR,6604,9257,15210,0.105,551
2020-03-18T08:21:03,42.805,6.029,CST-1368DR,6604,9261,15215,0.104,551
2020-03-18T08:24:04,42.805,6.029,CST-1368DR,6604,9259,15213,0.105,551
2020-03-18T08:27:06,42.805,6.029,CST-1368DR,6604,9261,15216,0.104,551
2020-03-18T08:30:08,42.805,6.029,CST-1368DR,6604,9262,15217,0.104,551
2020-03-18T08:33:09,42.805,6.029,CST-1368DR,6604,9262,15217,0.104,551
2020-03-18T08:36:11,42.805,6.029,CST-1368DR,6604,9261,15216,0.104,551
2020-03-18T08:39:13,42.805,6.029,CST-1368DR,6604,9262,15217,0.104,551
2020-03-18T08:42:14,42.805,6.029,CST-1368DR,6604,9261,15215,0.104,551
2020-03-18T08:45:16,42.805,6.029,CST-1368DR,6604,9261,15216,0.104,551
2020-03-18T08:48:18,42.805,6.029,CST-1368DR,6604,9261,15217,0.104,551
2020-03-18T08:51:20,42.805,6.029,CST-1368DR,6604,9261,15217,0.104,551
2020-03-18T08:54:21,42.805,6.029,CST-1368DR,6604,9261,15216,0.104,551
2020-03-18T08:57:23,42.805,6.029,CST-1368DR,6604,9261,15215,0.104,551
2020-03-18T09:00:25,42.805,6.029,CST-1368DR,6604,9260,15214,0.104,551
2020-03-18T09:03:26,42.805,6.029,CST-1368DR,6604,9262,15217,0.104,551
2020-03-18T09:06:28,42.805,6.029,CST-1368DR,6604,9261,15217,0.104,551
2020-03-18T09:09:30,42.805,6.029,CST-1368DR,6604,9261,15216,0.104,551
2020-03-18T09:12:32,42.805,6.029,CST-1368DR,6604,9261,15215,0.104,551
2020-03-18T09:15:33,42.805,6.029,CST-1368DR,6604,9260,15214,0.104,551
2020-03-18T09:18:35,42.805,6.029,CST-1368DR,6604,9259,15213,0.105,551
2020-03-18T09:21:37,42.805,6.029,CST-1368DR,6604,9260,15214,0.104,551
2020-03-18T09:24:38,42.805,6.029,CST-1368DR,6604,9259,15213,0.105,551
2020-03-18T09:27:40,42.805,6.029,CST-1368DR,6604,9261,15216,0.104,551
2020-03-18T09:30:42,42.805,6.029,CST-1368DR,6604,9261,15215,0.104,551
2020-03-18T09:33:43,42.805,6.029,CST-1368DR,6604,9260,15214,0.104,551
2020-03-18T09:36:45,42.805,6.029,CST-1368DR,6604,9261,15216,0.104,551
2020-03-18T09:39:47,42.805,6.029,CST-1368DR,6604,9261,15216,0.104,551
2020-03-18T09:42:49,42.805,6.029,CST-1368DR,6604,9257,15210,0.105,551
2020-03-18T09:45:50,42.805,6.029,CST-1368DR,6604,9261,15216,0.104,551
2020-03-18T09:48:52,42.805,6.029,CST-1368DR,6604,9261,15216,0.104,551
2020-03-18T09:51:54,42.805,6.029,CST-1368DR,6604,9261,15216,0.104,551
2020-03-18T09:54:55,42.805,6.029,CST-1368DR,6604,9261,15216,0.104,551
2020-03-18T09:57:57,42.805,6.029,CST-1368DR,6604,9258,15211,0.105,551
2020-03-18T10:00:59,42.805,6.029,CST-1368DR,6604,9261,15215,0.104,551
2020-03-18T10:04:00,42.805,6.029,CST-1368DR,6604,9260,15214,0.104,551
2020-03-18T10:07:02,42.805,6.029,CST-1368DR,6604,9261,15215,0.104,551
2020-03-18T10:10:04,42.805,6.029,CST-1368DR,6604,9261,15215,0.104,551
2020-03-18T10:13:06,42.805,6.029,CST-1368DR,6604,9261,15216,0.104,551
2020-03-18T10:16:07,42.805,6.029,CST-1368DR,6604,9261,15216,0.104,551
2020-03-18T10:19:09,42.805,6.029,CST-1368DR,6604,9258,15212,0.105,551
2020-03-18T10:22:11,42.805,6.029,CST-1368DR,6604,9260,15214,0.104,550
2020-03-18T10:25:12,42.805,6.029,CST-1368DR,6604,9259,15213,0.105,551
2020-03-18T10:28:14,42.805,6.029,CST-1368DR,6604,9261,15215,0.104,550
2020-03-18T10:31:16,42.805,6.029,CST-1368DR,6604,9261,15215,0.104,551
2020-03-18T10:34:18,42.805,6.029,CST-1368DR,6604,9259,15212,0.105,550
2020-03-18T10:37:19,42.805,6.029,CST-1368DR,6604,9258,15211,0.105,551
2020-03-18T10:40:21,42.805,6.029,CST-1368DR,6604,9259,15213,0.105,551
2020-03-18T10:43:23,42.805,6.029,CST-1368DR,6604,9261,15216,0.104,551
2020-03-18T10:46:25,42.805,6.029,CST-1368DR,6604,9259,15213,0.105,551
2020-03-18T10:49:26,42.805,6.029,CST-1368DR,6604,9261,15215,0.104,551
2020-03-18T10:52:28,42.805,6.029,CST-1368DR,6604,9259,15213,0.105,551
2020-03-18T10:55:30,42.805,6.029,CST-1368DR,6604,9260,15215,0.104,551
2020-03-18T10:58:31,42.805,6.029,CST-1368DR,6604,9259,15213,0.105,551
2020-03-18T11:01:33,42.805,6.029,CST-1368DR,6604,9260,15214,0.104,551
2020-03-18T11:04:35,42.805,6.029,CST-1368DR,6604,9259,15213,0.105,551
2020-03-18T11:07:36,42.805,6.029,CST-1368DR,6604,9260,15215,0.104,551
2020-03-18T11:10:38,42.805,6.029,CST-1368DR,6604,9260,15214,0.104,551
2020-03-18T11:13:40,42.805,6.029,CST-1368DR,6604,9259,15213,0.105,551
2020-03-18T11:16:42,42.805,6.029,CST-1368DR,6604,9259,15213,0.105,551
2020-03-18T11:19:43,42.805,6.029,CST-1368DR,6604,9260,15214,0.104,551
2020-03-18T11:22:45,42.805,6.029,CST-1368DR,6604,9259,15213,0.105,551
2020-03-18T11:25:47,42.805,6.029,CST-1368DR,6604,9259,15213,0.105,551
2020-03-18T11:28:49,42.805,6.029,CST-1368DR,6604,9260,15214,0.104,551
2020-03-18T11:31:50,42.805,6.029,CST-1368DR,6604,9260,15214,0.104,551
2020-03-18T11:34:52,42.805,6.029,CST-1368DR,6604,9259,15213,0.105,551
2020-03-18T11:37:54,42.805,6.029,CST-1368DR,6604,9252,15201,0.108,551
2020-03-18T11:40:55,42.805,6.029,CST-1368DR,6604,9260,15215,0.104,551
2020-03-18T11:43:57,42.805,6.029,CST-1368DR,6604,9259,15213,0.105,551
2020-03-18T11:46:59,42.805,6.029,CST-1368DR,6604,9259,15213,0.105,551
2020-03-18T11:50:00,42.805,6.029,CST-1368DR,6604,9260,15214,0.104,551
2020-03-18T11:53:02,42.805,6.029,CST-1368DR,6604,9260,15215,0.104,551
2020-03-18T11:56:04,42.805,6.029,CST-1368DR,6604,9260,15215,0.104,551
2020-03-18T11:59:06,42.805,6.029,CST-1368DR,6603,9259,15214,0.104,550
2020-03-18T12:02:07,42.805,6.029,CST-1368DR,6603,9260,15216,0.104,551
2020-03-18T12:05:09,42.805,6.029,CST-1368DR,6603,9259,15214,0.104,551
2020-03-18T12:08:11,42.805,6.029,CST-1368DR,6603,9260,15216,0.104,551
2020-03-18T12:11:12,42.805,6.029,CST-1368DR,6603,9260,15217,0.104,551
2020-03-18T12:14:14,42.805,6.029,CST-1368DR,6603,9260,15216,0.104,551
2020-03-18T12:17:16,42.805,6.029,CST-1368DR,6603,9260,15216,0.104,551
2020-03-18T12:20:17,42.805,6.029,CST-1368DR,6603,9259,15214,0.104,551
2020-03-18T12:23:19,42.805,6.029,CST-1368DR,6603,9259,15215,0.104,551
2020-03-18T12:26:21,42.805,6.029,CST-1368DR,6603,9259,15215,0.104,551
2020-03-18T12:29:23,42.805,6.029,CST-1368DR,6603,9258,15213,0.105,550
2020-03-18T12:32:24,42.805,6.029,CST-1368DR,6603,9259,15215,0.104,551
2020-03-18T12:35:26,42.805,6.029,CST-1368DR,6603,9259,15215,0.104,551
2020-03-18T12:38:28,42.805,6.029,CST-1368DR,6603,9260,15216,0.104,551
2020-03-18T12:41:29,42.805,6.029,CST-1368DR,6603,9259,15215,0.104,550
2020-03-18T12:44:31,42.805,6.029,CST-1368DR,6603,9259,15215,0.104,551
2020-03-18T12:47:33,42.805,6.029,CST-1368DR,6603,9260,15216,0.104,551
2020-03-18T12:50:35,42.805,6.029,CST-1368DR,6603,9258,15214,0.104,550
2020-03-18T12:53:36,42.805,6.029,CST-1368DR,6603,9259,15215,0.104,551
2020-03-18T12:56:38,42.805,6.029,CST-1368DR,6603,9259,15215,0.104,551
2020-03-18T12:59:40,42.805,6.029,CST-1368DR,6603,9258,15214,0.104,551
2020-03-18T13:02:41,42.805,6.029,CST-1368DR,6603,9260,15216,0.104,551
2020-03-18T13:05:43,42.805,6.029,CST-1368DR,6603,9259,15215,0.104,551
2020-03-18T13:08:45,42.805,6.029,CST-1368DR,6603,9260,15217,0.104,551
2020-03-18T13:11:47,42.805,6.029,CST-1368DR,6603,9260,15216,0.104,551
2020-03-18T13:14:48,42.805,6.029,CST-1368DR,6603,9260,15216,0.104,551
2020-03-18T13:17:50,42.805,6.029,CST-1368DR,6603,9259,15215,0.104,551
2020-03-18T13:20:52,42.805,6.029,CST-1368DR,6603,9259,15215,0.104,551
2020-03-18T13:23:53,42.805,6.029,CST-1368DR,6603,9260,15216,0.104,551
2020-03-18T13:26:55,42.805,6.029,CST-1368DR,6603,9260,15216,0.104,551
2020-03-18T13:29:57,42.805,6.029,CST-1368DR,6603,9259,15215,0.104,551
2020-03-18T13:32:59,42.805,6.029,CST-1368DR,6603,9259,15215,0.104,551
2020-03-18T13:36:00,42.805,6.029,CST-1368DR,6603,9259,15215,0.104,551
2020-03-18T13:39:02,42.805,6.029,CST-1368DR,6603,9259,15215,0.104,550
2020-03-18T13:42:04,42.805,6.029,CST-1368DR,6603,9258,15214,0.104,551
2020-03-18T13:45:05,42.805,6.029,CST-1368DR,6603,9258,15214,0.104,551
2020-03-18T13:48:07,42.805,6.029,CST-1368DR,6603,9259,15215,0.104,551
2020-03-18T13:51:09,42.805,6.029,CST-1368DR,6603,9259,15215,0.104,551
2020-03-18T13:54:10,42.805,6.029,CST-1368DR,6603,9260,15216,0.104,551
2020-03-18T13:57:12,42.805,6.029,CST-1368DR,6603,9260,15216,0.104,551
2020-03-18T14:00:14,42.805,6.029,CST-1368DR,6603,9260,15216,0.104,551
2020-03-18T14:03:16,42.805,6.029,CST-1368DR,6603,9260,15216,0.104,551
2020-03-18T14:06:17,42.805,6.029,CST-1368DR,6603,9260,15217,0.104,551
2020-03-18T14:09:19,42.805,6.029,CST-1368DR,6603,9259,15214,0.104,551
2020-03-18T14:12:21,42.805,6.029,CST-1368DR,6603,9260,15216,0.104,551
2020-03-18T14:15:22,42.805,6.029,CST-1368DR,6603,9260,15216,0.104,551
2020-03-18T14:18:24,42.805,6.029,CST-1368DR,6603,9260,15216,0.104,551
2020-03-18T14:21:26,42.805,6.029,CST-1368DR,6603,9259,15215,0.104,551
2020-03-18T14:24:28,42.805,6.029,CST-1368DR,6603,9259,15215,0.104,551
2020-03-18T14:27:29,42.805,6.029,CST-1368DR,6603,9259,15215,0.104,551
2020-03-18T14:30:31,42.805,6.029,CST-1368DR,6603,9259,15215,0.104,551
2020-03-18T14:33:33,42.805,6.029,CST-1368DR,6603,9259,15215,0.104,551
2020-03-18T14:36:34,42.805,6.029,CST-1368DR,6603,9259,15215,0.104,551
2020-03-18T14:39:36,42.805,6.029,CST-1368DR,6603,9257,15212,0.105,551
2020-03-18T14:42:38,42.805,6.029,CST-1368DR,6603,9260,15216,0.104,551
2020-03-18T14:45:39,42.805,6.029,CST-1368DR,6603,9260,15216,0.104,551
2020-03-18T14:48:41,42.805,6.029,CST-1368DR,6603,9260,15216,0.104,551
2020-03-18T14:51:43,42.805,6.029,CST-1368DR,6603,9260,15216,0.104,551
2020-03-18T14:54:45,42.805,6.029,CST-1368DR,6603,9259,15214,0.104,551
2020-03-18T14:57:46,42.805,6.029,CST-1368DR,6603,9260,15216,0.104,550
2020-03-18T15:00:48,42.805,6.029,CST-1368DR,6603,9260,15216,0.104,551
2020-03-18T15:03:50,42.805,6.029,CST-1368DR,6603,9260,15216,0.104,551
2020-03-18T15:06:51,42.805,6.029,CST-1368DR,6603,9259,15215,0.104,551
2020-03-18T15:09:53,42.805,6.029,CST-1368DR,6603,9259,15215,0.104,551
2020-03-18T15:12:55,42.805,6.029,CST-1368DR,6603,9259,15215,0.104,550
2020-03-18T15:15:57,42.805,6.029,CST-1368DR,6603,9259,15215,0.104,551
2020-03-18T15:18:58,42.805,6.029,CST-1368DR,6603,9261,15218,0.103,551
2020-03-18T15:22:00,42.805,6.029,CST-1368DR,6603,9258,15213,0.105,551
2020-03-18T15:25:02,42.805,6.029,CST-1368DR,6603,9259,15215,0.104,551
2020-03-18T15:28:04,42.805,6.029,CST-1368DR,6603,9260,15216,0.104,551
2020-03-18T15:31:05,42.805,6.029,CST-1368DR,6603,9259,15215,0.104,551
2020-03-18T15:34:07,42.805,6.029,CST-1368DR,6603,9260,15217,0.104,551
2020-03-18T15:37:09,42.805,6.029,CST-1368DR,6603,9259,15214,0.104,551
2020-03-18T15:40:11,42.805,6.029,CST-1368DR,6603,9258,15214,0.104,551
2020-03-18T15:43:12,42.805,6.029,CST-1368DR,6603,9259,15214,0.104,551
2020-03-18T15:46:14,42.805,6.029,CST-1368DR,6603,9258,15213,0.105,551
2020-03-18T15:49:16,42.805,6.029,CST-1368DR,6603,9261,15218,0.103,551
2020-03-18T15:52:17,42.805,6.029,CST-1368DR,6603,9254,15206,0.106,551
2020-03-18T15:55:19,42.805,6.029,CST-1368DR,6603,9260,15216,0.104,551
2020-03-18T15:58:21,42.805,6.029,CST-1368DR,6603,9259,15215,0.104,551
2020-03-18T16:01:23,42.805,6.029,CST-1368DR,6603,9259,15215,0.104,551
2020-03-18T16:04:24,42.805,6.029,CST-1368DR,6603,9260,15216,0.104,551
2020-03-18T16:07:26,42.805,6.029,CST-1368DR,6603,9258,15214,0.104,551
2020-03-18T16:10:28,42.805,6.029,CST-1368DR,6602,9258,15215,0.104,551
2020-03-18T16:13:29,42.805,6.029,CST-1368DR,6602,9256,15212,0.105,551
2020-03-18T16:16:31,42.805,6.029,CST-1368DR,6603,9259,15215,0.104,551
2020-03-18T16:19:33,42.805,6.029,CST-1368DR,6603,9259,15215,0.104,551
2020-03-18T16:22:34,42.805,6.029,CST-1368DR,6602,9258,15216,0.104,551
2020-03-18T16:25:36,42.805,6.029,CST-1368DR,6603,9260,15216,0.104,551
2020-03-18T16:28:38,42.805,6.029,CST-1368DR,6603,9260,15216,0.104,551
2020-03-18T16:31:39,42.805,6.029,CST-1368DR,6603,9259,15215,0.104,551
2020-03-18T16:34:41,42.805,6.029,CST-1368DR,6602,9260,15219,0.103,551
2020-03-18T16:37:43,42.805,6.029,CST-1368DR,6602,9260,15218,0.103,551
2020-03-18T16:40:45,42.805,6.029,CST-1368DR,6602,9260,15218,0.103,551
2020-03-18T16:43:46,42.805,6.029,CST-1368DR,6602,9259,15217,0.104,551
2020-03-18T16:46:48,42.805,6.029,CST-1368DR,6602,9260,15218,0.103,551
2020-03-18T16:49:50,42.805,6.029,CST-1368DR,6602,9259,15218,0.103,551
2020-03-18T16:52:52,42.805,6.029,CST-1368DR,6602,9260,15218,0.103,551